Location: Rounton
(54.4000°N, 1.3500°W)
Time: 14:30:03
(UTC+00:00)

Transit 4A - Pass Details

Date: 02 December 2021
Orbit: 864 x 981 km, 66.8° (Epoch: 20 January)

Event Time Altitude Azimuth Distance (km) Brightness Sun altitude
Rises 18:05:19 0° 150° (SSE) 3,462 10.7 -19.2°
Enters shadow 18:06:30 - 143° (SE) 3,150 10.4 -19.4°
Reaches altitude 10° 18:09:40 10° 119° (ESE) 2,553 - -19.9°
Maximum altitude 18:11:33 12° 100° (E) 2,451 - -20.1°
Drops below altitude 10° 18:13:28 10° 81° (E) 2,582 - -20.4°
Sets 18:17:55 0° 51° (NE) 3,561 - -21.1°
